Tchien Airport

Jump to: basic info | weather | comments

Related pages: nearby airports | nearby navaids | notams | map

Basic information (top)

Codes: THC GLTN
Location: lon 6.045650, lat -8.138723, elev 790 ft / 241 m msl
Status: small_airport
Scheduled airline service: no
Links: Wikipedia Mobile

Weather (top)

Current conditions for Man Airport 81nm (149km) NNE (rec'd 2013/11/21 04:00Z):

DIMN 210400Z NOL

Airport forecast for Roberts International Airport 133nm (247km) W (rec'd 2014/10/31 18:54Z):

TAF GLRB 311600Z 3118/0124 36010KT 9999 TS BKN018 FEW027CB 
      BECMG 3120/3122 08004KT 9999 FM 312300 02010KT 9000 TSRA SCT004 BKN014 FEW024CB 
      TEMPO 0105/0110 24010KT 8000

Latest comments (top)

No comments yet for Tchien Airport

More... (top)

See also NOTAMs and nearby airports and navaids, or visit the Tchien Airport page at the main OurAirports website..